Year,Month,Day,Hour,Minute,Value (Times are PST for temperature in C)
2010,07,01,00,00,8.80
2010,07,01,00,01,8.80
2010,07,01,00,02,8.80
2010,07,01,00,03,8.80
2010,07,01,00,04,8.70
2010,07,01,00,05,8.70
2010,07,01,00,06,8.70
2010,07,01,00,07,8.80
2010,07,01,00,08,8.80
2010,07,01,00,09,8.80
2010,07,01,00,10,8.80
2010,07,01,00,11,8.80
2010,07,01,00,12,8.80
2010,07,01,00,13,8.80
2010,07,01,00,14,8.80
2010,07,01,00,15,8.80
2010,07,01,00,16,8.80
2010,07,01,00,17,8.80
2010,07,01,00,18,8.80
2010,07,01,00,19,8.90
2010,07,01,00,20,8.90
2010,07,01,00,21,8.90
2010,07,01,00,22,8.90
2010,07,01,00,23,8.90
2010,07,01,00,24,9.00
2010,07,01,00,25,9.00
2010,07,01,00,26,9.10
2010,07,01,00,27,9.10
2010,07,01,00,28,9.10
2010,07,01,00,29,9.10
2010,07,01,00,30,9.10
2010,07,01,00,31,9.10
2010,07,01,00,32,9.10
2010,07,01,00,33,9.10
2010,07,01,00,34,9.10
2010,07,01,00,35,9.10
2010,07,01,00,36,9.10
2010,07,01,00,37,9.10
2010,07,01,00,38,9.10
2010,07,01,00,39,9.10
2010,07,01,00,40,9.20
2010,07,01,00,41,9.20
2010,07,01,00,42,9.20
2010,07,01,00,43,9.20
2010,07,01,00,44,9.20
2010,07,01,00,45,9.20
2010,07,01,00,46,9.20
2010,07,01,00,47,9.20
2010,07,01,00,48,9.20
2010,07,01,00,49,9.20
2010,07,01,00,50,9.20
2010,07,01,00,51,9.20
2010,07,01,00,52,9.20
2010,07,01,00,53,9.20
2010,07,01,00,54,9.20
2010,07,01,00,55,9.20
2010,07,01,00,56,9.20
2010,07,01,00,57,9.20
2010,07,01,00,58,9.20
2010,07,01,00,59,9.20
2010,07,01,01,00,9.20
2010,07,01,01,01,9.30
2010,07,01,01,02,9.30
2010,07,01,01,03,9.30
2010,07,01,01,04,9.30
2010,07,01,01,05,9.30
2010,07,01,01,06,9.30
2010,07,01,01,07,9.40
2010,07,01,01,08,9.40
2010,07,01,01,09,9.40
2010,07,01,01,10,9.40
2010,07,01,01,11,9.40
2010,07,01,01,12,9.40
2010,07,01,01,13,9.40
2010,07,01,01,14,9.40
2010,07,01,01,15,9.40
2010,07,01,01,16,9.40
2010,07,01,01,17,9.40
2010,07,01,01,18,9.40
2010,07,01,01,19,9.40
2010,07,01,01,20,9.40
2010,07,01,01,21,9.40
2010,07,01,01,22,9.40
2010,07,01,01,23,9.40
2010,07,01,01,24,9.40
2010,07,01,01,25,9.40
2010,07,01,01,26,9.40
2010,07,01,01,27,9.40
2010,07,01,01,28,9.40
2010,07,01,01,29,9.50
2010,07,01,01,30,9.40
2010,07,01,01,31,9.40
2010,07,01,01,32,9.40
2010,07,01,01,33,9.40
2010,07,01,01,34,9.40
2010,07,01,01,35,9.40
2010,07,01,01,36,9.40
2010,07,01,01,37,9.40
2010,07,01,01,38,9.40
2010,07,01,01,39,9.40
2010,07,01,01,40,9.40
2010,07,01,01,41,9.40
2010,07,01,01,42,9.40
2010,07,01,01,43,9.30
2010,07,01,01,44,9.30
2010,07,01,01,45,9.30
2010,07,01,01,46,9.30
2010,07,01,01,47,9.40
2010,07,01,01,48,9.40
2010,07,01,01,49,9.30
2010,07,01,01,50,9.30
2010,07,01,01,51,9.30
2010,07,01,01,52,9.30
2010,07,01,01,53,9.30
2010,07,01,01,54,9.30
2010,07,01,01,55,9.30
2010,07,01,01,56,9.30
2010,07,01,01,57,9.30
2010,07,01,01,58,9.30
2010,07,01,01,59,9.30
2010,07,01,02,00,9.30
2010,07,01,02,01,9.30
2010,07,01,02,02,9.30
2010,07,01,02,03,9.30
2010,07,01,02,04,9.30
2010,07,01,02,05,9.30
2010,07,01,02,06,9.30
2010,07,01,02,07,9.30
2010,07,01,02,08,9.30
2010,07,01,02,09,9.30
2010,07,01,02,10,9.30
2010,07,01,02,11,9.30
2010,07,01,02,12,9.30
2010,07,01,02,13,9.20
2010,07,01,02,14,9.20
2010,07,01,02,15,9.20
2010,07,01,02,16,9.20
2010,07,01,02,17,9.20
2010,07,01,02,18,9.20
2010,07,01,02,19,9.20
2010,07,01,02,20,9.20
2010,07,01,02,21,9.20
2010,07,01,02,22,9.20
2010,07,01,02,23,9.20
2010,07,01,02,24,9.20
2010,07,01,02,25,9.20
2010,07,01,02,26,9.20
2010,07,01,02,27,9.20
2010,07,01,02,28,9.20
2010,07,01,02,29,9.20
2010,07,01,02,30,9.20
2010,07,01,02,31,9.30
2010,07,01,02,32,9.30
2010,07,01,02,33,9.20
2010,07,01,02,34,9.20
2010,07,01,02,35,9.20
2010,07,01,02,36,9.20
2010,07,01,02,37,9.20
2010,07,01,02,38,9.20
2010,07,01,02,39,9.20
2010,07,01,02,40,9.20
2010,07,01,02,41,9.20
2010,07,01,02,42,9.20
2010,07,01,02,43,9.20
2010,07,01,02,44,9.20
2010,07,01,02,45,9.20
2010,07,01,02,46,9.20
2010,07,01,02,47,9.20
2010,07,01,02,48,9.20
2010,07,01,02,49,9.20
2010,07,01,02,50,9.20
2010,07,01,02,51,9.10
2010,07,01,02,52,9.10
2010,07,01,02,53,9.10
2010,07,01,02,54,9.10
2010,07,01,02,55,9.10
2010,07,01,02,56,9.10
2010,07,01,02,57,9.10
2010,07,01,02,58,9.10
2010,07,01,02,59,9.10
2010,07,01,03,00,9.10
2010,07,01,03,01,9.10
2010,07,01,03,02,9.10
2010,07,01,03,03,9.10
2010,07,01,03,04,9.10
2010,07,01,03,05,9.10
2010,07,01,03,06,9.10
2010,07,01,03,07,9.10
2010,07,01,03,08,9.10
2010,07,01,03,09,9.10
2010,07,01,03,10,9.10
2010,07,01,03,11,9.10
2010,07,01,03,12,9.10
2010,07,01,03,13,9.10
2010,07,01,03,14,9.10
2010,07,01,03,15,9.10
2010,07,01,03,16,9.10
2010,07,01,03,17,9.10
2010,07,01,03,18,9.10
2010,07,01,03,19,9.10
2010,07,01,03,20,9.10
2010,07,01,03,21,9.10
2010,07,01,03,22,9.20
2010,07,01,03,23,9.20
2010,07,01,03,24,9.20
2010,07,01,03,25,9.20
2010,07,01,03,26,9.20
2010,07,01,03,27,9.20
2010,07,01,03,28,9.20
2010,07,01,03,29,9.20
2010,07,01,03,30,9.20
2010,07,01,03,31,9.20
2010,07,01,03,32,9.30
2010,07,01,03,33,9.30
2010,07,01,03,34,9.30
2010,07,01,03,35,9.30
2010,07,01,03,36,9.30
2010,07,01,03,37,9.30
2010,07,01,03,38,9.30
2010,07,01,03,39,9.30
2010,07,01,03,40,9.30
2010,07,01,03,41,9.30
2010,07,01,03,42,9.30
2010,07,01,03,43,9.30
2010,07,01,03,44,9.30
2010,07,01,03,45,9.40
2010,07,01,03,46,9.40
2010,07,01,03,47,9.40
2010,07,01,03,48,9.40
2010,07,01,03,49,9.40
2010,07,01,03,50,9.50
2010,07,01,03,51,9.50
2010,07,01,03,52,9.50
2010,07,01,03,53,9.50
2010,07,01,03,54,9.60
2010,07,01,03,55,9.60
2010,07,01,03,56,9.60
2010,07,01,03,57,9.60
2010,07,01,03,58,9.60
2010,07,01,03,59,9.60
2010,07,01,04,00,9.60
2010,07,01,04,01,9.60
2010,07,01,04,02,9.60
2010,07,01,04,03,9.60
2010,07,01,04,04,9.60
2010,07,01,04,05,9.60
2010,07,01,04,06,9.60
2010,07,01,04,07,9.60
2010,07,01,04,08,9.60
2010,07,01,04,09,9.70
2010,07,01,04,10,9.70
2010,07,01,04,11,9.70
2010,07,01,04,12,9.70
2010,07,01,04,13,9.70
2010,07,01,04,14,9.70
2010,07,01,04,15,9.70
2010,07,01,04,16,9.70
2010,07,01,04,17,9.70
2010,07,01,04,18,9.70
2010,07,01,04,19,9.70
2010,07,01,04,20,9.70
2010,07,01,04,21,9.70
2010,07,01,04,22,9.70
2010,07,01,04,23,9.70
2010,07,01,04,24,9.70
2010,07,01,04,25,9.70
2010,07,01,04,26,9.70
2010,07,01,04,27,9.70
2010,07,01,04,28,9.70
2010,07,01,04,29,9.70
2010,07,01,04,30,9.70
2010,07,01,04,31,9.70
2010,07,01,04,32,9.70
2010,07,01,04,33,9.70
2010,07,01,04,34,9.70
2010,07,01,04,35,9.70
2010,07,01,04,36,9.70
2010,07,01,04,37,9.70
2010,07,01,04,38,9.70
2010,07,01,04,39,9.70
2010,07,01,04,40,9.70
2010,07,01,04,41,9.70
2010,07,01,04,42,9.70
2010,07,01,04,43,9.70
2010,07,01,04,44,9.70
2010,07,01,04,45,9.70
2010,07,01,04,46,9.70
2010,07,01,04,47,9.70
2010,07,01,04,48,9.70
2010,07,01,04,49,9.70
2010,07,01,04,50,9.80
2010,07,01,04,51,9.80
2010,07,01,04,52,9.80
2010,07,01,04,53,9.80
2010,07,01,04,54,9.80
2010,07,01,04,55,9.80
2010,07,01,04,56,9.80
2010,07,01,04,57,9.80
2010,07,01,04,58,9.80
2010,07,01,04,59,9.80
2010,07,01,05,00,9.80
2010,07,01,05,01,9.80
2010,07,01,05,02,9.80
2010,07,01,05,03,9.80
2010,07,01,05,04,9.80
2010,07,01,05,05,9.80
2010,07,01,05,06,9.80
2010,07,01,05,07,9.90
2010,07,01,05,08,9.90
2010,07,01,05,09,9.90
2010,07,01,05,10,9.90
2010,07,01,05,11,9.90
2010,07,01,05,12,9.90
2010,07,01,05,13,9.90
2010,07,01,05,14,9.90
2010,07,01,05,15,9.90
2010,07,01,05,16,9.90
2010,07,01,05,17,9.90
2010,07,01,05,18,9.90
2010,07,01,05,19,9.90
2010,07,01,05,20,9.90
2010,07,01,05,21,9.90
2010,07,01,05,22,9.90
2010,07,01,05,23,9.90
2010,07,01,05,24,9.90
2010,07,01,05,25,9.90
2010,07,01,05,26,9.90
2010,07,01,05,27,9.80
2010,07,01,05,28,9.80
2010,07,01,05,29,9.80
2010,07,01,05,30,9.80
2010,07,01,05,31,9.80
2010,07,01,05,32,9.90
2010,07,01,05,33,9.90
2010,07,01,05,34,9.90
2010,07,01,05,35,9.90
2010,07,01,05,36,9.90
2010,07,01,05,37,9.90
2010,07,01,05,38,9.90
2010,07,01,05,39,9.90
2010,07,01,05,40,9.90
2010,07,01,05,41,9.90
2010,07,01,05,42,9.90
2010,07,01,05,43,9.90
2010,07,01,05,44,9.90
2010,07,01,05,45,9.90
2010,07,01,05,46,9.90
2010,07,01,05,47,9.90
2010,07,01,05,48,9.90
2010,07,01,05,49,9.90
2010,07,01,05,50,9.90
2010,07,01,05,51,9.90
2010,07,01,05,52,9.90
2010,07,01,05,53,9.90
2010,07,01,05,54,9.90
2010,07,01,05,55,9.90
2010,07,01,05,56,9.90
2010,07,01,05,57,9.90
2010,07,01,05,58,9.90
2010,07,01,05,59,9.90
2010,07,01,06,00,9.90
2010,07,01,06,01,9.90
2010,07,01,06,02,9.90
2010,07,01,06,03,9.90
2010,07,01,06,04,9.90
2010,07,01,06,05,9.90
2010,07,01,06,06,9.90
2010,07,01,06,07,9.90
2010,07,01,06,08,9.90
2010,07,01,06,09,9.90
2010,07,01,06,10,9.90
2010,07,01,06,11,9.90
2010,07,01,06,12,9.90
2010,07,01,06,13,9.90
2010,07,01,06,14,9.90
2010,07,01,06,15,9.90
2010,07,01,06,16,9.90
2010,07,01,06,17,10.00
2010,07,01,06,18,10.00
2010,07,01,06,19,10.00
2010,07,01,06,20,10.00
2010,07,01,06,21,10.00
2010,07,01,06,22,10.10
2010,07,01,06,23,10.10
2010,07,01,06,24,10.10
2010,07,01,06,25,10.10
2010,07,01,06,26,10.20
2010,07,01,06,27,10.20
2010,07,01,06,28,10.20
2010,07,01,06,29,10.20
2010,07,01,06,30,10.30
2010,07,01,06,31,10.30
2010,07,01,06,32,10.30
2010,07,01,06,33,10.30
2010,07,01,06,34,10.30
2010,07,01,06,35,10.30
2010,07,01,06,36,10.30
2010,07,01,06,37,10.20
2010,07,01,06,38,10.20
2010,07,01,06,39,10.20
2010,07,01,06,40,10.20
2010,07,01,06,41,10.20
2010,07,01,06,42,10.20
2010,07,01,06,43,10.20
2010,07,01,06,44,10.20
2010,07,01,06,45,10.20
2010,07,01,06,46,10.20
2010,07,01,06,47,10.20
2010,07,01,06,48,10.20
2010,07,01,06,49,10.20
2010,07,01,06,50,10.20
2010,07,01,06,51,10.20
2010,07,01,06,52,10.20
2010,07,01,06,53,10.20
2010,07,01,06,54,10.20
2010,07,01,06,55,10.20
2010,07,01,06,56,10.20
2010,07,01,06,57,10.20
2010,07,01,06,58,10.20
2010,07,01,06,59,10.20
2010,07,01,07,00,10.20
2010,07,01,07,01,10.20
2010,07,01,07,02,10.30
2010,07,01,07,03,10.30
2010,07,01,07,04,10.30
2010,07,01,07,05,10.30
2010,07,01,07,06,10.30
2010,07,01,07,07,10.30
2010,07,01,07,08,10.30
2010,07,01,07,09,10.30
2010,07,01,07,10,10.30
2010,07,01,07,11,10.30
2010,07,01,07,12,10.30
2010,07,01,07,13,10.30
2010,07,01,07,14,10.30
2010,07,01,07,15,10.30
2010,07,01,07,16,10.30
2010,07,01,07,17,10.30
2010,07,01,07,18,10.30
2010,07,01,07,19,10.30
2010,07,01,07,20,10.30
2010,07,01,07,21,10.30
2010,07,01,07,22,10.40
2010,07,01,07,23,10.40
2010,07,01,07,24,10.40
2010,07,01,07,25,10.40
2010,07,01,07,26,10.50
2010,07,01,07,27,10.50
2010,07,01,07,28,10.50
2010,07,01,07,29,10.50
2010,07,01,07,30,10.50
2010,07,01,07,31,10.50
2010,07,01,07,32,10.50
2010,07,01,07,33,10.50
2010,07,01,07,34,10.50
2010,07,01,07,35,10.60
2010,07,01,07,36,10.50
2010,07,01,07,37,10.50
2010,07,01,07,38,10.60
2010,07,01,07,39,10.60
2010,07,01,07,40,10.60
2010,07,01,07,41,10.60
2010,07,01,07,42,10.70
2010,07,01,07,43,10.70
2010,07,01,07,44,10.70
2010,07,01,07,45,10.80
2010,07,01,07,46,10.80
2010,07,01,07,47,10.80
2010,07,01,07,48,10.80
2010,07,01,07,49,10.80
2010,07,01,07,50,10.80
2010,07,01,07,51,10.80
2010,07,01,07,52,10.90
2010,07,01,07,53,10.90
2010,07,01,07,54,10.90
2010,07,01,07,55,10.90
2010,07,01,07,56,11.00
2010,07,01,07,57,11.00
2010,07,01,07,58,11.10
2010,07,01,07,59,11.10
2010,07,01,08,00,11.20
2010,07,01,08,01,11.20
2010,07,01,08,02,11.20
2010,07,01,08,03,11.20
2010,07,01,08,04,11.30
2010,07,01,08,05,11.30
2010,07,01,08,06,11.30
2010,07,01,08,07,11.30
2010,07,01,08,08,11.30
2010,07,01,08,09,11.40
2010,07,01,08,10,11.40
2010,07,01,08,11,11.40
2010,07,01,08,12,11.40
2010,07,01,08,13,11.40
2010,07,01,08,14,11.40
2010,07,01,08,15,11.50
2010,07,01,08,16,11.50
2010,07,01,08,17,11.50
2010,07,01,08,18,11.60
2010,07,01,08,19,11.60
2010,07,01,08,20,11.60
2010,07,01,08,21,11.60
2010,07,01,08,22,11.70
2010,07,01,08,23,11.70
2010,07,01,08,24,11.70
2010,07,01,08,25,11.70
2010,07,01,08,26,11.70
2010,07,01,08,27,11.80
2010,07,01,08,28,11.80
2010,07,01,08,29,11.80
2010,07,01,08,30,11.80
2010,07,01,08,31,11.80
2010,07,01,08,32,11.90
2010,07,01,08,33,11.90
2010,07,01,08,34,11.90
2010,07,01,08,35,11.90
2010,07,01,08,36,11.90
2010,07,01,08,37,11.90
2010,07,01,08,38,11.90
2010,07,01,08,39,11.90
2010,07,01,08,40,11.90
2010,07,01,08,41,11.90
2010,07,01,08,42,12.00
2010,07,01,08,43,12.00
2010,07,01,08,44,12.00
2010,07,01,08,45,12.10
2010,07,01,08,46,12.10
2010,07,01,08,47,12.10
2010,07,01,08,48,12.10
2010,07,01,08,49,12.20
2010,07,01,08,50,12.20
2010,07,01,08,51,12.20
2010,07,01,08,52,12.20
2010,07,01,08,53,12.20
2010,07,01,08,54,12.20
2010,07,01,08,55,12.20
2010,07,01,08,56,12.20
2010,07,01,08,57,12.30
2010,07,01,08,58,12.30
2010,07,01,08,59,12.40
2010,07,01,09,00,12.40
2010,07,01,09,01,12.40
2010,07,01,09,02,12.40
2010,07,01,09,03,12.40
2010,07,01,09,04,12.50
2010,07,01,09,05,12.50
2010,07,01,09,06,12.60
2010,07,01,09,07,12.60
2010,07,01,09,08,12.60
2010,07,01,09,09,12.60
2010,07,01,09,10,12.70
2010,07,01,09,11,12.70
2010,07,01,09,12,12.70
2010,07,01,09,13,12.70
2010,07,01,09,14,12.70
2010,07,01,09,15,12.70
2010,07,01,09,16,12.70
2010,07,01,09,17,12.70
2010,07,01,09,18,12.70
2010,07,01,09,19,12.70
2010,07,01,09,20,12.70
2010,07,01,09,21,12.60
2010,07,01,09,22,12.60
2010,07,01,09,23,12.60
2010,07,01,09,24,12.50
2010,07,01,09,25,12.50
2010,07,01,09,26,12.50
2010,07,01,09,27,12.40
2010,07,01,09,28,12.40
2010,07,01,09,29,12.50
2010,07,01,09,30,12.50
2010,07,01,09,31,12.40
2010,07,01,09,32,12.40
2010,07,01,09,33,12.40
2010,07,01,09,34,12.40
2010,07,01,09,35,12.40
2010,07,01,09,36,12.40
2010,07,01,09,37,12.40
2010,07,01,09,38,12.40
2010,07,01,09,39,12.40
2010,07,01,09,40,12.40
2010,07,01,09,41,12.40
2010,07,01,09,42,12.40
2010,07,01,09,43,12.40
2010,07,01,09,44,12.40
2010,07,01,09,45,12.40
2010,07,01,09,46,12.40
2010,07,01,09,47,12.50
2010,07,01,09,48,12.50
2010,07,01,09,49,12.60
2010,07,01,09,50,12.60
2010,07,01,09,51,12.60
2010,07,01,09,52,12.60
2010,07,01,09,53,12.70
2010,07,01,09,54,12.70
2010,07,01,09,55,12.70
2010,07,01,09,56,12.70
2010,07,01,09,57,12.70
2010,07,01,09,58,12.70
2010,07,01,09,59,12.70
2010,07,01,10,00,12.70
2010,07,01,10,01,12.70
2010,07,01,10,02,12.70
2010,07,01,10,03,12.70
2010,07,01,10,04,12.70
2010,07,01,10,05,12.80
2010,07,01,10,06,12.70
2010,07,01,10,07,12.70
2010,07,01,10,08,12.70
2010,07,01,10,09,12.70
2010,07,01,10,10,12.70
2010,07,01,10,11,12.80
2010,07,01,10,12,12.70
2010,07,01,10,13,12.70
2010,07,01,10,14,12.70
2010,07,01,10,15,12.70
2010,07,01,10,16,12.70
2010,07,01,10,17,12.80
2010,07,01,10,18,12.80
2010,07,01,10,19,12.80
2010,07,01,10,20,12.80
2010,07,01,10,21,12.80
2010,07,01,10,22,12.70
2010,07,01,10,23,12.80
2010,07,01,10,24,12.80
2010,07,01,10,25,12.80
2010,07,01,10,26,12.80
2010,07,01,10,27,12.80
2010,07,01,10,28,12.80
2010,07,01,10,29,12.80
2010,07,01,10,30,12.80
2010,07,01,10,31,12.80
2010,07,01,10,32,12.70
2010,07,01,10,33,12.70
2010,07,01,10,34,12.70
2010,07,01,10,35,12.70
2010,07,01,10,36,12.70
2010,07,01,10,37,12.70
2010,07,01,10,38,12.70
2010,07,01,10,39,12.70
2010,07,01,10,40,12.70
2010,07,01,10,41,12.70
2010,07,01,10,42,12.70
2010,07,01,10,43,12.80
2010,07,01,10,44,12.80
2010,07,01,10,45,12.80
2010,07,01,10,46,12.90
2010,07,01,10,47,12.90
2010,07,01,10,48,13.00
2010,07,01,10,49,13.00
2010,07,01,10,50,13.10
2010,07,01,10,51,13.10
2010,07,01,10,52,13.10
2010,07,01,10,53,13.20
2010,07,01,10,54,13.20
2010,07,01,10,55,13.20
2010,07,01,10,56,13.10
2010,07,01,10,57,13.00
2010,07,01,10,58,13.00
2010,07,01,10,59,13.10
2010,07,01,11,00,13.10
2010,07,01,11,01,13.10
2010,07,01,11,02,13.20
2010,07,01,11,03,13.20
2010,07,01,11,04,13.20
2010,07,01,11,05,13.20
2010,07,01,11,06,13.30
2010,07,01,11,07,13.30
2010,07,01,11,08,13.30
2010,07,01,11,09,13.30
2010,07,01,11,10,13.40
2010,07,01,11,11,13.40
2010,07,01,11,12,13.40
2010,07,01,11,13,13.40
2010,07,01,11,14,13.40
2010,07,01,11,15,13.50
2010,07,01,11,16,13.50
2010,07,01,11,17,13.50
2010,07,01,11,18,13.40
2010,07,01,11,19,13.40
2010,07,01,11,20,13.30
2010,07,01,11,21,13.30
2010,07,01,11,22,13.20
2010,07,01,11,23,13.10
2010,07,01,11,24,13.00
2010,07,01,11,25,13.00
2010,07,01,11,26,12.90
2010,07,01,11,27,12.90
2010,07,01,11,28,12.90
2010,07,01,11,29,13.00
2010,07,01,11,30,12.90
2010,07,01,11,31,12.90
2010,07,01,11,32,12.90
2010,07,01,11,33,12.90
2010,07,01,11,34,12.90
2010,07,01,11,35,12.90
2010,07,01,11,36,12.90
2010,07,01,11,37,12.90
2010,07,01,11,38,12.90
2010,07,01,11,39,13.00
2010,07,01,11,40,13.00
2010,07,01,11,41,13.00
2010,07,01,11,42,13.00
2010,07,01,11,43,13.00
2010,07,01,11,44,13.00
2010,07,01,11,45,13.00
2010,07,01,11,46,13.00
2010,07,01,11,47,12.90
2010,07,01,11,48,12.90
2010,07,01,11,49,12.80
2010,07,01,11,50,12.80
2010,07,01,11,51,12.80
2010,07,01,11,52,12.80
2010,07,01,11,53,12.70
2010,07,01,11,54,12.70
2010,07,01,11,55,12.70
2010,07,01,11,56,12.70
2010,07,01,11,57,12.70
2010,07,01,11,58,12.80
2010,07,01,11,59,12.80
2010,07,01,12,00,12.80
2010,07,01,12,01,12.80
2010,07,01,12,02,12.80
2010,07,01,12,03,12.90
2010,07,01,12,04,12.90
2010,07,01,12,05,12.90
2010,07,01,12,06,12.90
2010,07,01,12,07,13.00
2010,07,01,12,08,13.00
2010,07,01,12,09,13.10
2010,07,01,12,10,13.10
2010,07,01,12,11,13.10
2010,07,01,12,12,13.20
2010,07,01,12,13,13.20
2010,07,01,12,14,13.30
2010,07,01,12,15,13.30
2010,07,01,12,16,13.30
2010,07,01,12,17,13.40
2010,07,01,12,18,13.40
2010,07,01,12,19,13.40
2010,07,01,12,20,13.40
2010,07,01,12,21,13.40
2010,07,01,12,22,13.30
2010,07,01,12,23,13.30
2010,07,01,12,24,13.30
2010,07,01,12,25,13.20
2010,07,01,12,26,13.20
2010,07,01,12,27,13.20
2010,07,01,12,28,13.20
2010,07,01,12,29,13.20
2010,07,01,12,30,13.20
2010,07,01,12,31,13.20
2010,07,01,12,32,13.20
2010,07,01,12,33,13.20
2010,07,01,12,34,13.20
2010,07,01,12,35,13.20
2010,07,01,12,36,13.20
2010,07,01,12,37,13.20
2010,07,01,12,38,13.20
2010,07,01,12,39,13.20
2010,07,01,12,40,13.10
2010,07,01,12,41,13.10
2010,07,01,12,42,13.10
2010,07,01,12,43,13.10
2010,07,01,12,44,13.10
2010,07,01,12,45,13.10
2010,07,01,12,46,13.10
2010,07,01,12,47,13.10
2010,07,01,12,48,13.10
2010,07,01,12,49,13.10
2010,07,01,12,50,13.10
2010,07,01,12,51,13.10
2010,07,01,12,52,13.00
2010,07,01,12,53,13.00
2010,07,01,12,54,13.00
2010,07,01,12,55,12.90
2010,07,01,12,56,12.90
2010,07,01,12,57,12.90
2010,07,01,12,58,12.90
2010,07,01,12,59,12.90
2010,07,01,13,00,12.80
2010,07,01,13,01,12.80
2010,07,01,13,02,12.80
2010,07,01,13,03,12.80
2010,07,01,13,04,12.80
2010,07,01,13,05,12.80
2010,07,01,13,06,12.80
2010,07,01,13,07,12.80
2010,07,01,13,08,12.80
2010,07,01,13,09,12.80
2010,07,01,13,10,12.80
2010,07,01,13,11,12.80
2010,07,01,13,12,12.80
2010,07,01,13,13,12.80
2010,07,01,13,14,12.80
2010,07,01,13,15,12.80
2010,07,01,13,16,12.90
2010,07,01,13,17,12.90
2010,07,01,13,18,13.00
2010,07,01,13,19,13.10
2010,07,01,13,20,13.20
2010,07,01,13,21,13.20
2010,07,01,13,22,13.20
2010,07,01,13,23,13.30
2010,07,01,13,24,13.30
2010,07,01,13,25,13.40
2010,07,01,13,26,13.40
2010,07,01,13,27,13.40
2010,07,01,13,28,13.40
2010,07,01,13,29,13.40
2010,07,01,13,30,13.40
2010,07,01,13,31,13.40
2010,07,01,13,32,13.40
2010,07,01,13,33,13.40
2010,07,01,13,34,13.40
2010,07,01,13,35,13.30
2010,07,01,13,36,13.30
2010,07,01,13,37,13.30
2010,07,01,13,38,13.30
2010,07,01,13,39,13.30
2010,07,01,13,40,13.20
2010,07,01,13,41,13.20
2010,07,01,13,42,13.20
2010,07,01,13,43,13.20
2010,07,01,13,44,13.20
2010,07,01,13,45,13.20
2010,07,01,13,46,13.20
2010,07,01,13,47,13.20
2010,07,01,13,48,13.20
2010,07,01,13,49,13.20
2010,07,01,13,50,13.30
2010,07,01,13,51,13.30
2010,07,01,13,52,13.30
2010,07,01,13,53,13.40
2010,07,01,13,54,13.40
2010,07,01,13,55,13.40
2010,07,01,13,56,13.50
2010,07,01,13,57,13.50
2010,07,01,13,58,13.60
2010,07,01,13,59,13.60
2010,07,01,14,00,13.70
2010,07,01,14,01,13.70
2010,07,01,14,02,13.80
2010,07,01,14,03,13.80
2010,07,01,14,04,13.90
2010,07,01,14,05,13.90
2010,07,01,14,06,14.00
2010,07,01,14,07,14.00
2010,07,01,14,08,14.10
2010,07,01,14,09,14.10
2010,07,01,14,10,14.10
2010,07,01,14,11,14.20
2010,07,01,14,12,14.20
2010,07,01,14,13,14.30
2010,07,01,14,14,14.40
2010,07,01,14,15,14.50
2010,07,01,14,16,14.50
2010,07,01,14,17,14.60
2010,07,01,14,18,14.60
2010,07,01,14,19,14.70
2010,07,01,14,20,14.70
2010,07,01,14,21,14.80
2010,07,01,14,22,14.90
2010,07,01,14,23,15.00
2010,07,01,14,24,15.00
2010,07,01,14,25,15.00
2010,07,01,14,26,15.00
2010,07,01,14,27,15.10
2010,07,01,14,28,15.10
2010,07,01,14,29,15.00
2010,07,01,14,30,15.00
2010,07,01,14,31,15.00
2010,07,01,14,32,14.90
2010,07,01,14,33,14.80
2010,07,01,14,34,14.80
2010,07,01,14,35,14.80
2010,07,01,14,36,14.80
2010,07,01,14,37,14.80
2010,07,01,14,38,14.80
2010,07,01,14,39,14.80
2010,07,01,14,40,14.70
2010,07,01,14,41,14.70
2010,07,01,14,42,14.70
2010,07,01,14,43,14.70
2010,07,01,14,44,14.70
2010,07,01,14,45,14.70
2010,07,01,14,46,14.70
2010,07,01,14,47,14.70
2010,07,01,14,48,14.80
2010,07,01,14,49,14.80
2010,07,01,14,50,14.80
2010,07,01,14,51,14.80
2010,07,01,14,52,14.90
2010,07,01,14,53,14.90
2010,07,01,14,54,15.00
2010,07,01,14,55,15.00
2010,07,01,14,56,15.00
2010,07,01,14,57,15.00
2010,07,01,14,58,14.90
2010,07,01,14,59,14.80
2010,07,01,15,00,14.80
2010,07,01,15,01,14.70
2010,07,01,15,02,14.70
2010,07,01,15,03,14.60
2010,07,01,15,04,14.60
2010,07,01,15,05,14.60
2010,07,01,15,06,14.50
2010,07,01,15,07,14.40
2010,07,01,15,08,14.30
2010,07,01,15,09,14.30
2010,07,01,15,10,14.30
2010,07,01,15,11,14.20
2010,07,01,15,12,14.20
2010,07,01,15,13,14.10
2010,07,01,15,14,14.10
2010,07,01,15,15,14.00
2010,07,01,15,16,13.90
2010,07,01,15,17,13.90
2010,07,01,15,18,13.90
2010,07,01,15,19,13.90
2010,07,01,15,20,13.90
2010,07,01,15,21,13.90
2010,07,01,15,22,14.00
2010,07,01,15,23,14.10
2010,07,01,15,24,14.10
2010,07,01,15,25,14.20
2010,07,01,15,26,14.20
2010,07,01,15,27,14.10
2010,07,01,15,28,14.10
2010,07,01,15,29,14.10
2010,07,01,15,30,14.10
2010,07,01,15,31,14.10
2010,07,01,15,32,14.20
2010,07,01,15,33,14.20
2010,07,01,15,34,14.20
2010,07,01,15,35,14.30
2010,07,01,15,36,14.30
2010,07,01,15,37,14.30
2010,07,01,15,38,14.40
2010,07,01,15,39,14.40
2010,07,01,15,40,14.40
2010,07,01,15,41,14.40
2010,07,01,15,42,14.40
2010,07,01,15,43,14.40
2010,07,01,15,44,14.40
2010,07,01,15,45,14.40
2010,07,01,15,46,14.50
2010,07,01,15,47,14.40
2010,07,01,15,48,14.40
2010,07,01,15,49,14.40
2010,07,01,15,50,14.40
2010,07,01,15,51,14.40
2010,07,01,15,52,14.30
2010,07,01,15,53,14.30
2010,07,01,15,54,14.30
2010,07,01,15,55,14.30
2010,07,01,15,56,14.30
2010,07,01,15,57,14.30
2010,07,01,15,58,14.30
2010,07,01,15,59,14.30
2010,07,01,16,00,14.30
2010,07,01,16,01,14.30
2010,07,01,16,02,14.30
2010,07,01,16,03,14.20
2010,07,01,16,04,14.20
2010,07,01,16,05,14.20
2010,07,01,16,06,14.20
2010,07,01,16,07,14.10
2010,07,01,16,08,14.10
2010,07,01,16,09,14.10
2010,07,01,16,10,14.10
2010,07,01,16,11,14.10
2010,07,01,16,12,14.10
2010,07,01,16,13,14.10
2010,07,01,16,14,14.10
2010,07,01,16,15,14.10
2010,07,01,16,16,14.20
2010,07,01,16,17,14.20
2010,07,01,16,18,14.20
2010,07,01,16,19,14.20
2010,07,01,16,20,14.20
2010,07,01,16,21,14.20
2010,07,01,16,22,14.20
2010,07,01,16,23,14.20
2010,07,01,16,24,14.30
2010,07,01,16,25,14.30
2010,07,01,16,26,14.30
2010,07,01,16,27,14.30
2010,07,01,16,28,14.30
2010,07,01,16,29,14.30
2010,07,01,16,30,14.30
2010,07,01,16,31,14.30
2010,07,01,16,32,14.30
2010,07,01,16,33,14.30
2010,07,01,16,34,14.30
2010,07,01,16,35,14.20
2010,07,01,16,36,14.20
2010,07,01,16,37,14.20
2010,07,01,16,38,14.20
2010,07,01,16,39,14.20
2010,07,01,16,40,14.20
2010,07,01,16,41,14.20
2010,07,01,16,42,14.20
2010,07,01,16,43,14.30
2010,07,01,16,44,14.30
2010,07,01,16,45,14.40
2010,07,01,16,46,14.50
2010,07,01,16,47,14.50
2010,07,01,16,48,14.60
2010,07,01,16,49,14.70
2010,07,01,16,50,14.70
2010,07,01,16,51,14.80
2010,07,01,16,52,14.90
2010,07,01,16,53,15.00
2010,07,01,16,54,15.00
2010,07,01,16,55,15.00
2010,07,01,16,56,15.00
2010,07,01,16,57,15.00
2010,07,01,16,58,15.00
2010,07,01,16,59,15.00
2010,07,01,17,00,15.00
2010,07,01,17,01,15.00
2010,07,01,17,02,15.00
2010,07,01,17,03,15.00
2010,07,01,17,04,15.00
2010,07,01,17,05,15.00
2010,07,01,17,06,15.00
2010,07,01,17,07,15.00
2010,07,01,17,08,15.10
2010,07,01,17,09,15.10
2010,07,01,17,10,15.10
2010,07,01,17,11,15.10
2010,07,01,17,12,15.10
2010,07,01,17,13,15.20
2010,07,01,17,14,15.20
2010,07,01,17,15,15.20
2010,07,01,17,16,15.20
2010,07,01,17,17,15.20
2010,07,01,17,18,15.20
2010,07,01,17,19,15.20
2010,07,01,17,20,15.20
2010,07,01,17,21,15.20
2010,07,01,17,22,15.20
2010,07,01,17,23,15.20
2010,07,01,17,24,15.20
2010,07,01,17,25,15.10
2010,07,01,17,26,15.00
2010,07,01,17,27,15.00
2010,07,01,17,28,15.00
2010,07,01,17,29,15.00
2010,07,01,17,30,15.00
2010,07,01,17,31,15.00
2010,07,01,17,32,15.00
2010,07,01,17,33,15.00
2010,07,01,17,34,15.00
2010,07,01,17,35,15.00